KAL035 RKSI-KATL

Flight info

Callsign KAL035
Flight time N/A
Altitude 33000
Route EGOBA2H EGOBA Y697 LANAT Y51 SAMON Y142 GTC Y512 ADNAP R591 ADGOR DCT AGEDI DCT AKISU DCT ASPIN/N0492F350 DCT AAMYY DCT SYA DCT AMOND DCT ALDOZ DCT ALUFF DCT SPY DCT AKN DCT MDO/N0486F370 DCT YAK DCT 59N130W DCT YXJ DCT YEX DCT 52N110W 50N104W DCT MOT/N0485F390 DCT DSM Q19 STL DCT TINGS DCT HITMN DCT NEWBB DCT IHAVE DCT MTHEW CHPPR1
Aircraft B77W/H-SDE2FGHIJ1J3J5M1P2RWXYZ/LB1D1

Departure

Time 2026-05-05 18:33
Airport Incheon International Airport (RKSI)

Arrival

Time N/A
Airport Hartsfield Jackson Atlanta International Airport (KATL)
Time Latitude Longitude Altitude Speed Heading
2026-05-05 17:45 37.46866 126.43994 37 ft 0 kts 219°
2026-05-05 18:07 37.46877 126.44005 36 ft 4 kts 219°
2026-05-05 18:07 37.46898 126.44027 37 ft 4 kts 219°
2026-05-05 18:07 37.46916 126.44045 36 ft 4 kts 214°
2026-05-05 18:08 37.46936 126.44058 36 ft 4 kts 186°
2026-05-05 18:08 37.46954 126.44056 35 ft 4 kts 144°
2026-05-05 18:08 37.46966 126.44043 36 ft 4 kts 129°
2026-05-05 18:08 37.46984 126.44016 35 ft 1 kts 134°
2026-05-05 18:09 37.46986 126.44014 35 ft 0 kts 134°
2026-05-05 18:14 37.46976 126.44028 34 ft 8 kts 132°
2026-05-05 18:14 37.46946 126.44066 35 ft 9 kts 134°
2026-05-05 18:15 37.46876 126.44159 37 ft 10 kts 133°
2026-05-05 18:15 37.46829 126.44219 37 ft 10 kts 136°
2026-05-05 18:15 37.46778 126.44274 37 ft 10 kts 142°
2026-05-05 18:15 37.46747 126.44303 37 ft 5 kts 144°
2026-05-05 18:16 37.46717 126.44329 37 ft 5 kts 144°
2026-05-05 18:16 37.46712 126.44334 37 ft 0 kts 144°
2026-05-05 18:18 37.46702 126.44343 37 ft 6 kts 143°
2026-05-05 18:19 37.46656 126.44385 36 ft 7 kts 146°
2026-05-05 18:19 37.46631 126.44404 37 ft 6 kts 143°
2026-05-05 18:19 37.46573 126.44456 37 ft 12 kts 155°
2026-05-05 18:19 37.46500 126.44408 37 ft 15 kts 230°
2026-05-05 18:20 37.46451 126.44324 37 ft 12 kts 234°
2026-05-05 18:20 37.46399 126.44232 37 ft 14 kts 234°
2026-05-05 18:20 37.46340 126.44128 37 ft 16 kts 234°
2026-05-05 18:20 37.46283 126.44027 37 ft 13 kts 235°
2026-05-05 18:21 37.46226 126.43925 37 ft 15 kts 234°
2026-05-05 18:21 37.46161 126.43810 37 ft 17 kts 234°
2026-05-05 18:21 37.46089 126.43683 37 ft 19 kts 234°
2026-05-05 18:21 37.46012 126.43546 37 ft 20 kts 234°
2026-05-05 18:22 37.45941 126.43422 37 ft 12 kts 234°
2026-05-05 18:22 37.45895 126.43342 37 ft 12 kts 234°
2026-05-05 18:22 37.45880 126.43238 37 ft 13 kts 299°
2026-05-05 18:22 37.45953 126.43158 37 ft 15 kts 324°
2026-05-05 18:23 37.46044 126.43077 37 ft 17 kts 325°
2026-05-05 18:23 37.46145 126.42988 37 ft 19 kts 324°
2026-05-05 18:23 37.46229 126.42913 37 ft 14 kts 324°
2026-05-05 18:23 37.46313 126.42839 37 ft 16 kts 324°
2026-05-05 18:24 37.46409 126.42754 37 ft 17 kts 324°
2026-05-05 18:24 37.46516 126.42659 38 ft 19 kts 324°
2026-05-05 18:24 37.46611 126.42572 38 ft 11 kts 324°
2026-05-05 18:24 37.46679 126.42513 38 ft 11 kts 324°
2026-05-05 18:25 37.46743 126.42455 38 ft 11 kts 324°
2026-05-05 18:25 37.46764 126.42436 38 ft 11 kts 324°
2026-05-05 18:25 37.46872 126.42340 38 ft 11 kts 324°
2026-05-05 18:25 37.46937 126.42282 38 ft 11 kts 324°
2026-05-05 18:26 37.47002 126.42224 38 ft 11 kts 324°
2026-05-05 18:26 37.47067 126.42166 38 ft 11 kts 324°
2026-05-05 18:26 37.47132 126.42108 38 ft 11 kts 324°
2026-05-05 18:26 37.47197 126.42050 38 ft 11 kts 324°
2026-05-05 18:27 37.47262 126.41993 38 ft 11 kts 324°
2026-05-05 18:27 37.47327 126.41935 38 ft 11 kts 324°
2026-05-05 18:27 37.47380 126.41887 38 ft 8 kts 323°
2026-05-05 18:27 37.47400 126.41826 38 ft 8 kts 262°
2026-05-05 18:28 37.47357 126.41731 38 ft 0 kts 236°
2026-05-05 18:30 37.47351 126.41720 38 ft 4 kts 236°
2026-05-05 18:30 37.47333 126.41687 38 ft 7 kts 236°
2026-05-05 18:30 37.47287 126.41604 38 ft 12 kts 227°
2026-05-05 18:31 37.47242 126.41602 38 ft 10 kts 157°
2026-05-05 18:31 37.47185 126.41645 38 ft 10 kts 144°
2026-05-05 18:31 37.47172 126.41656 38 ft 0 kts 145°
2026-05-05 18:32 37.47134 126.41689 38 ft 29 kts 145°
2026-05-05 18:32 37.46762 126.42019 38 ft 97 kts 144°
2026-05-05 18:32 37.46009 126.42692 36 ft 154 kts 144°
2026-05-05 18:33 37.44994 126.43599 38 ft 195 kts 144°
2026-05-05 18:33 37.43816 126.44651 325 ft 202 kts 145°
2026-05-05 18:33 37.42620 126.45556 844 ft 201 kts 151°
2026-05-05 18:33 37.41362 126.46429 1271 ft 206 kts 151°
2026-05-05 18:34 37.40105 126.47336 1751 ft 209 kts 150°
2026-05-05 18:34 37.38882 126.48228 2215 ft 210 kts 152°
2026-05-05 18:34 37.37468 126.48887 2653 ft 212 kts 167°
2026-05-05 18:34 37.36014 126.49330 3122 ft 213 kts 166°
2026-05-05 18:35 37.34532 126.49817 3353 ft 230 kts 166°
2026-05-05 18:35 37.32924 126.50354 3615 ft 245 kts 165°
2026-05-05 18:35 37.31253 126.50917 4058 ft 253 kts 165°
2026-05-05 18:35 37.29545 126.51568 4434 ft 261 kts 154°
2026-05-05 18:36 37.28175 126.53075 4834 ft 269 kts 119°
2026-05-05 18:36 37.27656 126.55318 5367 ft 269 kts 95°
2026-05-05 18:36 37.27501 126.57681 5873 ft 274 kts 95°
2026-05-05 18:36 37.27428 126.60075 6443 ft 276 kts 86°
2026-05-05 18:37 37.27637 126.62485 7048 ft 278 kts 82°
2026-05-05 18:37 37.27941 126.65053 7702 ft 280 kts 81°
2026-05-05 18:37 37.28230 126.67481 8289 ft 282 kts 81°
2026-05-05 18:37 37.28511 126.69930 8854 ft 285 kts 82°
2026-05-05 18:38 37.28784 126.72409 9417 ft 287 kts 82°
2026-05-05 18:38 37.29050 126.74903 9929 ft 290 kts 82°
2026-05-05 18:38 37.29313 126.77438 9987 ft 295 kts 82°
2026-05-05 18:38 37.29573 126.79985 10010 ft 294 kts 83°
2026-05-05 18:39 37.29828 126.82523 9988 ft 291 kts 83°
2026-05-05 18:39 37.30214 126.84990 9989 ft 287 kts 70°
2026-05-05 18:39 37.30977 126.87324 10275 ft 295 kts 65°
2026-05-05 18:39 37.31878 126.89744 10413 ft 315 kts 64°
2026-05-05 18:40 37.32839 126.92308 10586 ft 334 kts 65°
2026-05-05 18:40 37.33829 126.94999 10745 ft 354 kts 65°
2026-05-05 18:40 37.34883 126.97926 11065 ft 369 kts 65°
2026-05-05 18:40 37.35942 127.00914 11588 ft 379 kts 66°
2026-05-05 18:41 37.36784 127.03317 12103 ft 383 kts 66°
2026-05-05 18:41 37.37895 127.06511 12960 ft 386 kts 66°
2026-05-05 18:41 37.38973 127.09624 13752 ft 389 kts 66°
2026-05-05 18:41 37.40056 127.12760 14489 ft 392 kts 66°
2026-05-05 18:42 37.41150 127.15930 15178 ft 397 kts 66°
2026-05-05 18:42 37.41861 127.17993 15624 ft 401 kts 66°
2026-05-05 18:42 37.43021 127.21360 16303 ft 406 kts 66°
2026-05-05 18:42 37.44145 127.24628 16995 ft 409 kts 66°
2026-05-05 18:43 37.45283 127.27937 17675 ft 412 kts 66°
2026-05-05 18:43 37.46426 127.31262 18327 ft 416 kts 66°
2026-05-05 18:43 37.47594 127.34667 18969 ft 420 kts 66°
2026-05-05 18:43 37.48657 127.38118 19557 ft 425 kts 72°
2026-05-05 18:44 37.49406 127.41726 20136 ft 428 kts 78°
2026-05-05 18:44 37.49990 127.45421 20724 ft 432 kts 79°
2026-05-05 18:44 37.50565 127.49147 21309 ft 435 kts 79°
2026-05-05 18:44 37.51139 127.52853 21837 ft 439 kts 79°
2026-05-05 18:45 37.51740 127.56705 22299 ft 445 kts 78°
2026-05-05 18:45 37.52347 127.60556 22727 ft 451 kts 77°
2026-05-05 18:45 37.52964 127.64445 23272 ft 455 kts 77°
2026-05-05 18:45 37.53587 127.68361 23828 ft 457 kts 77°
2026-05-05 18:46 37.54213 127.72296 24299 ft 460 kts 77°
2026-05-05 18:46 37.54843 127.76264 24773 ft 462 kts 77°
2026-05-05 18:46 37.55477 127.80271 25205 ft 465 kts 77°
2026-05-05 18:46 37.56101 127.84219 25634 ft 468 kts 77°
2026-05-05 18:47 37.56743 127.88296 26081 ft 471 kts 77°
2026-05-05 18:47 37.57391 127.92418 26517 ft 474 kts 77°
2026-05-05 18:47 37.58028 127.96478 26941 ft 476 kts 77°
2026-05-05 18:47 37.58673 128.00602 27353 ft 478 kts 77°
2026-05-05 18:48 37.59317 128.04732 27746 ft 481 kts 77°
2026-05-05 18:48 37.59962 128.08874 28130 ft 484 kts 77°
2026-05-05 18:48 37.60603 128.13003 28505 ft 486 kts 77°
2026-05-05 18:48 37.61261 128.17252 28878 ft 488 kts 77°
2026-05-05 18:49 37.61910 128.21460 29217 ft 490 kts 77°
2026-05-05 18:49 37.62551 128.25616 29552 ft 492 kts 77°
2026-05-05 18:49 37.63204 128.29867 30004 ft 491 kts 77°
2026-05-05 18:49 37.63841 128.34027 30466 ft 488 kts 77°
2026-05-05 18:50 37.64527 128.38511 30856 ft 488 kts 77°
2026-05-05 18:50 37.65169 128.42719 31145 ft 489 kts 77°
2026-05-05 18:50 37.65828 128.47049 31418 ft 490 kts 77°
2026-05-05 18:50 37.66470 128.51275 31723 ft 490 kts 77°
2026-05-05 18:51 37.67110 128.55509 31986 ft 491 kts 77°
2026-05-05 18:51 37.67756 128.59783 32263 ft 492 kts 77°
2026-05-05 18:51 37.68407 128.64099 32575 ft 491 kts 77°
2026-05-05 18:51 37.69040 128.68317 32960 ft 489 kts 77°
2026-05-05 18:52 37.69367 128.72644 32991 ft 495 kts 91°
2026-05-05 18:52 37.68862 128.76905 33043 ft 497 kts 104°
2026-05-05 18:52 37.67625 128.80969 33034 ft 496 kts 118°
2026-05-05 18:52 37.65805 128.84727 33036 ft 491 kts 122°
2026-05-05 18:53 37.62156 128.92037 33031 ft 491 kts 121°
2026-05-05 18:53 37.58574 128.99400 33019 ft 488 kts 121°
2026-05-05 18:54 37.55055 129.06724 33022 ft 490 kts 121°
2026-05-05 18:54 37.51508 129.14092 33023 ft 494 kts 121°
2026-05-05 18:55 37.47936 129.21484 33007 ft 496 kts 121°
2026-05-05 18:55 37.44330 129.28929 33005 ft 497 kts 121°
2026-05-05 18:56 37.40779 129.36253 33007 ft 496 kts 121°
2026-05-05 18:56 37.37145 129.43748 33002 ft 496 kts 121°
2026-05-05 18:57 37.33554 129.51141 33004 ft 495 kts 122°
2026-05-05 18:57 37.29961 129.58520 33003 ft 495 kts 122°
2026-05-05 18:58 37.26362 129.65892 32994 ft 495 kts 122°
2026-05-05 18:58 37.22755 129.73267 33012 ft 496 kts 122°
2026-05-05 18:59 37.19724 129.79453 33007 ft 497 kts 122°
2026-05-05 18:59 37.16098 129.86832 33016 ft 498 kts 123°
2026-05-05 19:00 37.12448 129.94216 33021 ft 499 kts 123°
2026-05-05 19:00 37.08783 130.01608 33017 ft 500 kts 123°
2026-05-05 19:01 37.05112 130.09004 33029 ft 501 kts 123°
2026-05-05 19:01 37.01429 130.16408 33039 ft 501 kts 124°
2026-05-05 19:02 36.97737 130.23816 33039 ft 502 kts 124°
2026-05-05 19:02 36.94013 130.31271 33040 ft 503 kts 124°
2026-05-05 19:03 36.90277 130.38734 33043 ft 503 kts 124°
2026-05-05 19:03 36.86560 130.46143 33043 ft 503 kts 124°
2026-05-05 19:04 36.82837 130.53548 33047 ft 504 kts 125°
2026-05-05 19:04 36.79110 130.60946 33057 ft 504 kts 125°
2026-05-05 19:05 36.75371 130.68351 33058 ft 504 kts 125°
2026-05-05 19:05 36.71622 130.75749 33061 ft 505 kts 125°
2026-05-05 19:06 36.67868 130.83142 33066 ft 505 kts 126°
2026-05-05 19:06 36.64108 130.90535 33064 ft 505 kts 126°
2026-05-05 19:07 36.60343 130.97923 33075 ft 506 kts 126°
2026-05-05 19:07 36.56543 131.05363 33079 ft 506 kts 126°
2026-05-05 19:08 36.52761 131.12752 33081 ft 506 kts 126°
2026-05-05 19:08 36.48977 131.20131 33085 ft 506 kts 126°
2026-05-05 19:09 36.45184 131.27510 33085 ft 507 kts 127°
2026-05-05 19:09 36.41382 131.34893 33092 ft 507 kts 127°
2026-05-05 19:10 36.38171 131.42702 33096 ft 515 kts 111°
2026-05-05 19:10 36.36845 131.51476 33094 ft 522 kts 94°
2026-05-05 19:11 36.36640 131.60495 33091 ft 524 kts 93°
2026-05-05 19:11 36.36457 131.69536 33094 ft 525 kts 94°
2026-05-05 19:12 36.36203 131.78596 33100 ft 526 kts 94°
2026-05-05 19:12 36.35906 131.87666 33107 ft 527 kts 95°
2026-05-05 19:13 36.35595 131.96754 33107 ft 528 kts 95°
2026-05-05 19:13 36.35282 132.05856 33107 ft 528 kts 95°
2026-05-05 19:14 36.34965 132.14947 33114 ft 528 kts 95°
2026-05-05 19:14 36.34641 132.24054 33116 ft 528 kts 95°
2026-05-05 19:15 36.34308 132.33211 33113 ft 528 kts 95°
2026-05-05 19:15 36.33970 132.42307 33111 ft 528 kts 95°
2026-05-05 19:16 36.33624 132.51418 33124 ft 528 kts 95°
2026-05-05 19:16 36.33272 132.60519 33122 ft 529 kts 95°
2026-05-05 19:17 36.32913 132.69625 33119 ft 529 kts 96°
2026-05-05 19:17 36.32546 132.78746 33122 ft 530 kts 96°
2026-05-05 19:18 36.32172 132.87877 33125 ft 531 kts 96°
2026-05-05 19:18 36.31790 132.97020 33128 ft 532 kts 96°
2026-05-05 19:19 36.31401 133.06189 33133 ft 533 kts 96°
2026-05-05 19:19 36.31003 133.15386 33129 ft 535 kts 96°
2026-05-05 19:20 36.30595 133.24659 33141 ft 536 kts 96°
2026-05-05 19:20 36.30180 133.33897 33129 ft 538 kts 96°
2026-05-05 19:21 36.29759 133.43153 33132 ft 538 kts 97°
2026-05-05 19:21 36.29329 133.52422 33132 ft 539 kts 97°
2026-05-05 19:22 36.28892 133.61697 33138 ft 539 kts 97°
2026-05-05 19:22 36.28448 133.70986 33137 ft 540 kts 97°
2026-05-05 19:23 36.27992 133.80286 33141 ft 541 kts 97°
2026-05-05 19:23 36.27510 133.89604 33144 ft 542 kts 97°
2026-05-05 19:24 36.27021 133.98939 33140 ft 543 kts 97°
2026-05-05 19:24 36.26527 134.08296 33145 ft 545 kts 98°
2026-05-05 19:25 36.26036 134.17669 33146 ft 546 kts 98°
2026-05-05 19:25 36.25548 134.27056 33149 ft 547 kts 98°
2026-05-05 19:26 36.25050 134.36464 33151 ft 547 kts 98°
2026-05-05 19:26 36.24765 134.45885 33142 ft 552 kts 88°
2026-05-05 19:27 36.26294 134.55225 33161 ft 557 kts 72°
2026-05-05 19:27 36.29525 134.63949 33161 ft 557 kts 62°
2026-05-05 19:28 36.33073 134.72503 33155 ft 558 kts 62°
2026-05-05 19:28 36.36572 134.81115 33156 ft 559 kts 63°
2026-05-05 19:29 36.40008 134.89776 33155 ft 560 kts 64°
2026-05-05 19:29 36.43421 134.98457 33156 ft 560 kts 64°
2026-05-05 19:30 36.46835 135.07151 33156 ft 560 kts 64°
2026-05-05 19:30 36.49696 135.14441 33161 ft 560 kts 64°
2026-05-05 19:31 36.53102 135.23136 33164 ft 559 kts 64°
2026-05-05 19:31 36.56501 135.31836 33162 ft 559 kts 64°
2026-05-05 19:32 36.59887 135.40531 33161 ft 558 kts 64°
2026-05-05 19:32 36.63258 135.49211 33166 ft 557 kts 64°
2026-05-05 19:33 36.66621 135.57892 33163 ft 556 kts 64°
2026-05-05 19:33 36.69979 135.66586 33164 ft 556 kts 64°
2026-05-05 19:34 36.73325 135.75274 33159 ft 556 kts 64°
2026-05-05 19:35 36.78342 135.88341 33165 ft 557 kts 64°
2026-05-05 19:35 36.81682 135.97072 33159 ft 558 kts 64°
2026-05-05 19:36 36.85016 136.05811 33161 ft 558 kts 64°
2026-05-05 19:36 36.88347 136.14568 33163 ft 558 kts 64°
2026-05-05 19:37 36.91672 136.23331 33162 ft 558 kts 64°
2026-05-05 19:37 36.94985 136.32090 33161 ft 557 kts 64°
2026-05-05 19:38 36.98307 136.40897 33156 ft 556 kts 64°
2026-05-05 19:38 37.01597 136.49642 33160 ft 555 kts 64°
2026-05-05 19:39 37.04873 136.58379 33164 ft 554 kts 64°
2026-05-05 19:39 37.08142 136.67118 33164 ft 554 kts 64°
2026-05-05 19:40 37.11404 136.75860 33169 ft 554 kts 64°
2026-05-05 19:40 37.14680 136.84675 33166 ft 554 kts 65°
2026-05-05 19:41 37.17928 136.93444 33168 ft 554 kts 65°
2026-05-05 19:41 37.21171 137.02224 33163 ft 555 kts 65°
2026-05-05 19:42 37.24409 137.11014 33152 ft 555 kts 65°
2026-05-05 19:42 37.27640 137.19812 33161 ft 555 kts 65°
2026-05-05 19:43 37.30865 137.28617 33168 ft 554 kts 65°
2026-05-05 19:43 37.34079 137.37417 33162 ft 554 kts 65°
2026-05-05 19:44 37.37281 137.46211 33171 ft 553 kts 65°
2026-05-05 19:44 37.40495 137.55062 33164 ft 553 kts 65°
2026-05-05 19:45 37.43684 137.63869 33165 ft 553 kts 65°
2026-05-05 19:45 37.46867 137.72688 33175 ft 554 kts 65°
2026-05-05 19:46 37.50049 137.81528 33168 ft 554 kts 65°
2026-05-05 19:46 37.53225 137.90378 33169 ft 555 kts 65°
2026-05-05 19:47 37.56395 137.99238 33174 ft 555 kts 65°
2026-05-05 19:47 37.59561 138.08112 33174 ft 555 kts 65°
2026-05-05 19:48 37.62739 138.17045 33174 ft 555 kts 65°
2026-05-05 19:48 37.65889 138.25927 33174 ft 554 kts 65°
2026-05-05 19:49 37.69001 138.34730 33174 ft 553 kts 65°
2026-05-05 19:49 37.72157 138.43677 33172 ft 553 kts 65°
2026-05-05 19:50 37.75285 138.52558 33170 ft 553 kts 65°
2026-05-05 19:50 37.78399 138.61427 33173 ft 553 kts 65°
2026-05-05 19:51 37.81512 138.70320 33177 ft 553 kts 65°
2026-05-05 19:51 37.84622 138.79235 33181 ft 554 kts 65°
2026-05-05 19:52 37.87750 138.88228 33182 ft 555 kts 66°
2026-05-05 19:52 37.90852 138.97172 33184 ft 555 kts 66°
2026-05-05 19:53 37.93939 139.06138 33188 ft 555 kts 68°
2026-05-05 19:53 37.96230 139.15457 33190 ft 554 kts 79°
2026-05-05 19:54 37.97357 139.25081 33189 ft 552 kts 85°
2026-05-05 19:54 37.98304 139.34803 33189 ft 552 kts 84°
2026-05-05 19:55 37.99297 139.44447 33195 ft 552 kts 84°
2026-05-05 19:55 38.00318 139.54103 33208 ft 553 kts 84°
2026-05-05 19:56 38.01328 139.63769 33209 ft 553 kts 84°
2026-05-05 19:56 38.02326 139.73419 33207 ft 553 kts 84°
2026-05-05 19:57 38.03316 139.83090 33231 ft 553 kts 84°
2026-05-05 19:57 38.04297 139.92781 33222 ft 554 kts 84°
2026-05-05 19:58 38.05113 140.00897 33227 ft 555 kts 84°
2026-05-05 19:58 38.06085 140.10623 33228 ft 556 kts 84°
2026-05-05 19:59 38.07057 140.20439 33235 ft 558 kts 84°
2026-05-05 19:59 38.08019 140.30227 33224 ft 559 kts 84°
2026-05-05 20:00 38.08973 140.40020 33229 ft 559 kts 84°
2026-05-05 20:00 38.09916 140.49813 33200 ft 561 kts 84°
2026-05-05 20:01 38.10857 140.59643 33210 ft 559 kts 85°
2026-05-05 20:01 38.11794 140.69530 33204 ft 560 kts 85°
2026-05-05 20:02 38.12717 140.79360 33194 ft 561 kts 85°
2026-05-05 20:02 38.13530 140.89371 33184 ft 560 kts 90°
2026-05-05 20:03 38.13232 140.99257 33178 ft 555 kts 102°
2026-05-05 20:03 38.12098 141.08729 33184 ft 554 kts 103°
2026-05-05 20:04 38.10888 141.18753 33192 ft 555 kts 102°
2026-05-05 20:04 38.09741 141.28662 33201 ft 556 kts 102°
2026-05-05 20:05 38.08630 141.38381 33211 ft 558 kts 102°
2026-05-05 20:05 38.07503 141.48149 33215 ft 559 kts 102°
2026-05-05 20:06 38.06363 141.57913 33215 ft 560 kts 102°
2026-05-05 20:06 38.05210 141.67705 33221 ft 561 kts 102°
2026-05-05 20:07 38.04048 141.77508 33216 ft 563 kts 103°
2026-05-05 20:07 38.02876 141.87327 33222 ft 564 kts 103°
2026-05-05 20:08 38.01693 141.97162 33227 ft 565 kts 103°
2026-05-05 20:08 38.00501 142.07013 33234 ft 566 kts 103°
2026-05-05 20:09 37.99292 142.16876 33236 ft 567 kts 103°
2026-05-05 20:09 37.98070 142.26755 33233 ft 567 kts 103°
2026-05-05 20:10 37.96841 142.36633 33237 ft 568 kts 103°
2026-05-05 20:10 37.95603 142.46524 33242 ft 569 kts 103°
2026-05-05 20:11 37.94355 142.56427 33250 ft 570 kts 103°
2026-05-05 20:11 37.93096 142.66350 33252 ft 571 kts 103°
2026-05-05 20:12 37.91826 142.76288 33251 ft 572 kts 103°
2026-05-05 20:12 37.90545 142.86238 33254 ft 573 kts 104°
2026-05-05 20:13 37.89254 142.96206 33263 ft 574 kts 104°
2026-05-05 20:13 37.87951 143.06189 33265 ft 576 kts 104°
2026-05-05 20:14 37.86638 143.16194 33267 ft 577 kts 104°
2026-05-05 20:14 37.85314 143.26212 33265 ft 578 kts 104°
2026-05-05 20:15 37.83981 143.36237 33266 ft 578 kts 104°
2026-05-05 20:15 37.82639 143.46278 33289 ft 579 kts 104°
2026-05-05 20:16 37.81037 143.56231 33276 ft 574 kts 112°
2026-05-05 20:16 37.78427 143.65714 33286 ft 570 kts 117°
2026-05-05 20:17 37.75682 143.75118 33272 ft 571 kts 117°
2026-05-05 20:17 37.72973 143.84565 33273 ft 572 kts 116°
2026-05-05 20:18 37.70288 143.94042 33287 ft 574 kts 116°
2026-05-05 20:18 37.67597 144.03536 33284 ft 575 kts 116°
2026-05-05 20:19 37.64889 144.13033 33285 ft 576 kts 116°
2026-05-05 20:19 37.62165 144.22535 33285 ft 576 kts 116°
2026-05-05 20:20 37.59891 144.30442 33289 ft 577 kts 116°
2026-05-05 20:20 37.57147 144.39956 33298 ft 578 kts 116°
2026-05-05 20:21 37.54392 144.49475 33298 ft 578 kts 116°
2026-05-05 20:21 37.51629 144.58990 33296 ft 578 kts 116°
2026-05-05 20:22 37.48857 144.68501 33300 ft 579 kts 116°
2026-05-05 20:22 37.46078 144.78003 33307 ft 579 kts 116°
2026-05-05 20:23 37.43289 144.87504 33308 ft 579 kts 117°
2026-05-05 20:23 37.40493 144.96996 33308 ft 579 kts 117°
2026-05-05 20:24 37.37686 145.06497 33312 ft 579 kts 117°
2026-05-05 20:24 37.34874 145.15978 33309 ft 579 kts 117°
2026-05-05 20:25 37.32051 145.25466 33313 ft 579 kts 117°
2026-05-05 20:25 37.29224 145.34932 33319 ft 579 kts 117°
2026-05-05 20:26 37.26395 145.44377 33319 ft 579 kts 117°
2026-05-05 20:26 37.23565 145.53832 33315 ft 577 kts 115°
2026-05-05 20:26 37.22665 145.58802 33308 ft 588 kts 97°
2026-05-05 20:27 37.22806 145.63922 33328 ft 591 kts 79°
2026-05-05 20:27 37.23943 145.68855 33345 ft 587 kts 63°
2026-05-05 20:27 37.25820 145.73386 33331 ft 580 kts 50°
2026-05-05 20:27 37.28369 145.77224 33318 ft 562 kts 34°
2026-05-05 20:28 37.31268 145.80488 33354 ft 560 kts 32°
2026-05-05 20:28 37.37145 145.86991 33342 ft 565 kts 33°
2026-05-05 20:29 37.43041 145.93696 33337 ft 570 kts 34°
2026-05-05 20:29 37.48859 146.00485 33333 ft 571 kts 34°
2026-05-05 20:30 37.54644 146.07295 33332 ft 570 kts 34°
2026-05-05 20:30 37.60425 146.14101 33328 ft 567 kts 34°
2026-05-05 20:31 37.66192 146.20887 33327 ft 565 kts 34°
2026-05-05 20:31 37.71928 146.27644 33337 ft 563 kts 34°
2026-05-05 20:32 37.77641 146.34389 33340 ft 561 kts 34°
2026-05-05 20:32 37.83333 146.41125 33340 ft 560 kts 34°
2026-05-05 20:33 37.89015 146.47865 33339 ft 560 kts 34°
2026-05-05 20:33 37.94692 146.54614 33339 ft 559 kts 34°
2026-05-05 20:34 38.00395 146.61411 33340 ft 559 kts 34°
2026-05-05 20:34 38.06054 146.68171 33340 ft 559 kts 34°
2026-05-05 20:35 38.11712 146.74944 33336 ft 558 kts 34°
2026-05-05 20:35 38.17356 146.81715 33338 ft 557 kts 35°
2026-05-05 20:36 38.22986 146.88486 33340 ft 556 kts 35°
2026-05-05 20:36 38.28593 146.95243 33336 ft 555 kts 35°
2026-05-05 20:37 38.34184 147.01996 33336 ft 553 kts 35°
2026-05-05 20:37 38.39747 147.08730 33331 ft 551 kts 36°
2026-05-05 20:38 38.45290 147.15456 33331 ft 548 kts 36°
2026-05-05 20:38 38.50803 147.22158 33329 ft 547 kts 36°
2026-05-05 20:39 38.56298 147.28853 33328 ft 545 kts 36°
2026-05-05 20:39 38.61768 147.35534 33328 ft 543 kts 36°
2026-05-05 20:40 38.67227 147.42215 33329 ft 543 kts 36°
2026-05-05 20:40 38.72673 147.48896 33329 ft 542 kts 36°
2026-05-05 20:41 38.78112 147.55582 33335 ft 541 kts 37°
2026-05-05 20:41 38.83543 147.62274 33332 ft 541 kts 37°
2026-05-05 20:42 38.88959 147.68962 33330 ft 540 kts 37°
2026-05-05 20:42 38.94366 147.75653 33328 ft 539 kts 37°
2026-05-05 20:43 38.99765 147.82351 33323 ft 539 kts 37°
2026-05-05 20:43 39.05180 147.89084 33322 ft 538 kts 37°
2026-05-05 20:44 39.10549 147.95773 33320 ft 537 kts 37°
2026-05-05 20:44 39.15903 148.02459 33324 ft 536 kts 38°
2026-05-05 20:45 39.23910 148.12487 33322 ft 534 kts 38°
2026-05-05 20:45 39.29232 148.19170 33319 ft 533 kts 38°
2026-05-05 20:46 39.34507 148.25808 33322 ft 533 kts 38°
2026-05-05 20:46 39.39838 148.32534 33325 ft 532 kts 38°
2026-05-05 20:47 39.45087 148.39170 33322 ft 531 kts 38°
2026-05-05 20:47 39.50361 148.45853 33318 ft 530 kts 38°
2026-05-05 20:48 39.55619 148.52529 33303 ft 529 kts 39°
2026-05-05 20:48 39.60895 148.59246 33307 ft 527 kts 39°
2026-05-05 20:49 39.66124 148.65915 33311 ft 527 kts 39°
2026-05-05 20:49 39.71340 148.72584 33309 ft 526 kts 39°
2026-05-05 20:50 39.75668 148.78128 33304 ft 525 kts 39°
2026-05-05 20:50 39.81743 148.85929 33307 ft 525 kts 39°
2026-05-05 20:51 39.86930 148.92606 33309 ft 524 kts 39°
2026-05-05 20:51 39.92104 148.99280 33304 ft 523 kts 39°
2026-05-05 20:52 39.97261 149.05949 33294 ft 522 kts 40°
2026-05-05 20:52 40.01534 149.11485 33301 ft 520 kts 40°
2026-05-05 20:53 40.06660 149.18140 33292 ft 519 kts 40°
2026-05-05 20:53 40.11807 149.24838 33292 ft 518 kts 40°
2026-05-05 20:54 40.16902 149.31482 33293 ft 517 kts 40°
2026-05-05 20:54 40.21986 149.38128 33288 ft 516 kts 40°
2026-05-05 20:55 40.27052 149.44765 33286 ft 515 kts 40°
2026-05-05 20:55 40.32113 149.51410 33283 ft 515 kts 40°
2026-05-05 20:56 40.37165 149.58059 33289 ft 514 kts 40°
2026-05-05 20:56 40.42212 149.64716 33283 ft 515 kts 40°
2026-05-05 20:57 40.47250 149.71394 33279 ft 515 kts 40°
2026-05-05 20:57 40.52280 149.78097 33272 ft 515 kts 41°
2026-05-05 20:58 40.57309 149.84815 33277 ft 515 kts 41°
2026-05-05 20:58 40.62339 149.91547 33275 ft 515 kts 41°
2026-05-05 20:59 40.67357 149.98276 33270 ft 515 kts 41°
2026-05-05 20:59 40.72378 150.05024 33268 ft 515 kts 41°
2026-05-05 21:00 40.77390 150.11777 33269 ft 515 kts 41°
2026-05-05 21:00 40.82395 150.18535 33255 ft 515 kts 41°
2026-05-05 21:01 40.87390 150.25295 33262 ft 514 kts 41°
2026-05-05 21:01 40.92389 150.32076 33267 ft 514 kts 41°
2026-05-05 21:02 40.97372 150.38852 33262 ft 514 kts 41°
2026-05-05 21:02 41.02354 150.45641 33255 ft 514 kts 41°
2026-05-05 21:03 41.07330 150.52438 33249 ft 514 kts 41°
2026-05-05 21:03 41.12336 150.59291 33246 ft 513 kts 41°
2026-05-05 21:04 41.17267 150.66059 33248 ft 513 kts 41°
2026-05-05 21:04 41.22248 150.72910 33243 ft 512 kts 42°
2026-05-05 21:05 41.27192 150.79727 33241 ft 512 kts 42°
2026-05-05 21:05 41.32121 150.86538 33240 ft 511 kts 42°
2026-05-05 21:06 41.37045 150.93358 33235 ft 510 kts 42°
2026-05-05 21:06 41.41956 151.00177 33234 ft 510 kts 42°
2026-05-05 21:07 41.46862 151.07004 33229 ft 509 kts 42°
2026-05-05 21:07 41.51756 151.13830 33228 ft 509 kts 42°
2026-05-05 21:08 41.56649 151.20670 33228 ft 509 kts 42°
2026-05-05 21:08 41.61533 151.27514 33227 ft 509 kts 42°
2026-05-05 21:09 41.66418 151.34377 33224 ft 510 kts 42°
2026-05-05 21:09 41.71302 151.41253 33219 ft 510 kts 42°
2026-05-05 21:10 41.76186 151.48147 33216 ft 510 kts 42°
2026-05-05 21:10 41.81066 151.55050 33214 ft 511 kts 42°
2026-05-05 21:11 41.85949 151.61974 33214 ft 511 kts 42°
2026-05-05 21:11 41.90833 151.68916 33205 ft 511 kts 42°
2026-05-05 21:12 41.95713 151.75870 33204 ft 512 kts 42°
2026-05-05 21:12 42.00590 151.82836 33201 ft 512 kts 42°
2026-05-05 21:13 42.05459 151.89806 33200 ft 511 kts 42°
2026-05-05 21:13 42.10327 151.96794 33195 ft 511 kts 42°
2026-05-05 21:14 42.15181 152.03776 33193 ft 510 kts 42°
2026-05-05 21:14 42.20063 152.10816 33195 ft 510 kts 42°
2026-05-05 21:15 42.24897 152.17804 33189 ft 509 kts 42°
2026-05-05 21:15 42.29725 152.24799 33187 ft 509 kts 42°
2026-05-05 21:16 42.34514 152.31756 33175 ft 509 kts 42°
2026-05-05 21:16 42.39358 152.38808 33180 ft 509 kts 42°
2026-05-05 21:17 42.44172 152.45835 33175 ft 509 kts 42°
2026-05-05 21:17 42.48946 152.52819 33175 ft 509 kts 41°
2026-05-05 21:18 42.53748 152.59862 33163 ft 509 kts 41°
2026-05-05 21:18 42.58552 152.66925 33158 ft 509 kts 41°
2026-05-05 21:19 42.63352 152.73999 33156 ft 510 kts 41°
2026-05-05 21:19 42.68184 152.81138 33150 ft 510 kts 41°
2026-05-05 21:20 42.72174 152.87046 33149 ft 510 kts 41°